Regional Weather Roundup
Issued by NWS

Home | Current Version | Previous Version | Text Only | Print | Product List | Glossary On
Versions: 1 2 3 4 5 6 7 8 9 10 11 12 13 14 15 16 17 18 19 20 21 22 23 24 25 26 27 28 29 30 31 32 33 34 35 36 37 38 39 40 41 42 43 44 45 46 47 48 49 50
000
ASUS45 KABQ 201410
RWRNM
WEATHER ROUNDUP FOR NEW MEXICO
NATIONAL WEATHER SERVICE ALBUQUERQUE NM
800 AM MDT SUN APR 20 2014

NOTE: "FAIR" MEANS FEW OR NO CLOUDS BELOW 12,000 FEET AGL WITH NO
       SIGNIFICANT WEATHER OR OBSTRUCTIONS TO VISION.

      THIS PRODUCT IS RELEASED AS TWO VERSIONS.  ONE VERSION NEAR
      THE TOP OF THE HOUR CONTAINING PRELIMINARY DATA FROM ALBUQUERQUE
      AND OTHER STATIONS.  A FINAL VERSION WITH ADDITIONAL DATA IS
      ISSUED ABOUT 10 MINUTES AFTER THE HOUR.

NMZ501-503-504-510>518-201500-
NORTHWEST PLATEAU/NORTHCENTRAL MOUNTAINS

CITY           SKY/WX    TMP DP  RH WIND       PRES   REMARKS
FARMINGTON     SUNNY     47  36  65 CALM      30.12R
LOS ALAMOS     MOSUNNY   45  41  86 NW3       30.18R
SANTA FE       MOSUNNY   46  43  89 CALM      30.14R
TAOS           PTSUNNY   45  41  87 SE6       30.19S
ANGEL FIRE     DRIZZLE   42  37  84 CALM      30.20R

$$
NMZ402-403-502-505>509-201500-
WESTCENTRAL MOUNTAINS/SOUTHWEST MOUNTAINS

CITY           SKY/WX    TMP DP  RH WIND       PRES   REMARKS
GALLUP         MOSUNNY   42  35  76 W3        30.21R
GRANTS         SUNNY     42  35  74 CALM      30.21R
SILVER CITY    MOSUNNY   46  41  81 N8        30.20R

$$
NMZ407-409-411-412-201500-
SOUTHERN DESERTS

CITY           SKY/WX    TMP DP  RH WIND       PRES   REMARKS
LORDSBURG      FAIR      50  46  87 CALM      30.16R
DEMING         SUNNY     49  45  86 CALM      30.15R
LAS CRUCES     SUNNY     54  44  67 CALM      30.16S
HOLLOMAN AFB   PTSUNNY   49  49  99 N3        30.16R
ALAMOGORDO     PTSUNNY   50  48  93 NW5       30.16R
T OR C         MOSUNNY   54  45  71 W5        30.15R

$$
NMZ519>523-201500-
CENTRAL VALLEYS/CENTRAL HIGHLANDS

CITY           SKY/WX    TMP DP  RH WIND       PRES   REMARKS
ALBUQUERQUE    PTSUNNY   48  44  86 SE6       30.15R
DOUBLE EAGLE   PTSUNNY   45  45 100 S3        30.16R
MORIARTY ARPT  PTSUNNY   46  42  88 CALM      30.16S
CLINES CORNERS CLOUDY    44  41  89 W12       30.14R
BELEN          PTSUNNY   51  48  89 S5        30.14S
SOCORRO        FAIR      52  49  89 S6        30.15R

$$
NMZ524>526-539-540-201500-
SOUTHCENTRAL MOUNTAINS

CITY           SKY/WX    TMP DP  RH WIND       PRES   REMARKS
RUIDOSO        LGT RAIN  43  41  93 NW8       30.22R

$$
NMZ527>531-201500-
NORTHEAST HIGHLANDS/NORTHEAST PLAINS

CITY           SKY/WX    TMP DP  RH WIND       PRES   REMARKS
LAS VEGAS      LGT RAIN  45  41  86 SW8       30.13S
RATON          LGT RAIN  48  43  82 W7        30.09R
CLAYTON        CLOUDY    53  47  79 W9        30.04S

$$
NMZ532>537-201500-
EASTCENTRAL PLAINS

CITY           SKY/WX    TMP DP  RH WIND       PRES   REMARKS
TUCUMCARI      PTSUNNY   56  47  71 SW10      30.03S
CANNON AFB     MOSUNNY   54  47  77 SW14      30.07F
CLOVIS AIRPORT   N/A     54  50  87 SW14      30.10S

$$
NMZ028-029-538-201500-
SOUTHEAST PLAINS

CITY           SKY/WX    TMP DP  RH WIND       PRES   REMARKS
ROSWELL        PTSUNNY   52  45  77 E3        30.09R
ARTESIA        PTSUNNY   57  50  77 W10       30.10S
CARLSBAD       PTSUNNY   56  53  90 N6        30.09R
HOBBS          PTSUNNY   55  55 100 SW8       30.12S FOG


$$



USA.gov is the U.S. government's official web portal to all federal, state and local government web resources and services.